User: anonymous   Login
Location: Unspecified
(0.0000°N, 0.0000°E)
Time: 13:05:03
(UTC+01:00)
Language:

Atlas Centaur 2 - Orbit

View from above orbital plane
View from above orbital plane
View from above satellite
View from above satellite

Ground track
Ground track

The orbit data is extracted from the following two-line orbital elements,

1 00694U 63047A   16043.16941760  .00001425  00000-0  17778-3 0  9992
2 00694  30.3567 345.3480 0589866  93.0499 273.7719 14.01607518613760
Epoch (UTC): 12 February 2016 04:03:57
Eccentricity: 0.0589866
inclination: 30.3567°
perigee height: 459 km
apogee height: 1317 km
right ascension of ascending node: 345.3480°
argument of perigee: 93.0499°
revolutions per day: 14.01607518
mean anomaly at epoch: 273.7719°
orbit number at epoch: 61376

The dashed part of the orbit path shows where the satellite is in the earth's shadow,  

DLR